Weather History for KLDJ - February, 2013

Change the Weather History Date:

Tuesday, February 26, 2013

  Actual Average (KEWR) Record (KEWR)
Temperature  
Mean Temperature 39 °F 37 °F  
Max Temperature 45 °F 45 °F 68 °F (2002)
Min Temperature 33 °F 29 °F 8 °F (1990)
Degree Days  
Heating Degree Days 26 28  
Month to date heating degree days 796  
Since 1 July heating degree days 3580  
Cooling Degree Days 0 0  
Month to date cooling degree days 0  
Year to date cooling degree days 0  
Moisture  
Dew Point 31 °F    
Average Humidity 71    
Maximum Humidity 90    
Minimum Humidity 60    
Precipitation  
Precipitation 0.11 in 0.10 in 1.57 in (1939)
Month to date precipitation 2.65  
Year to date precipitation 6.19  
Snow  
Snow 0.00 in 0.30 in 8.20 in (2010)
Month to date snowfall 8.8  
Since 1 July snowfall 22.5  
Snow Depth -    
Sea Level Pressure  
Sea Level Pressure 30.19 in    
Wind  
Wind Speed 7 mph (East)    
Max Wind Speed 22 mph    
Max Gust Speed 29 mph    
Visibility 10 miles    
Events Rain    
T = Trace of Precipitation, MM = Missing Value Source: NWS Daily Summary

Daily Weather History Graph

Daily Weather History Graph

Search for Another Location

Airport or City:

Trip Planner

Search our weather history database for the weather conditions in past years. The results will help you decide how hot, cold, wet, or windy it might be!

Date:

Astronomy

Feb. 26, 2013 Rise Set
Actual Time 6:35 AM EST 5:45 PM EST
Civil Twilight 6:07 AM EST 6:12 PM EST
Nautical Twilight 5:35 AM EST 6:44 PM EST
Astronomical Twilight 5:04 AM EST 7:16 PM EST
Moon 6:59 PM EST (2/26) 6:35 AM EST (2/26)
Length of Visible Light 12h 05m
Length of Day
11h 10m
Full, 99% of the Moon is Illuminated
Feb 26
Full
Mar 4
Last Quarter
Mar 11
New
Mar 19
First Quarter
Mar 27
Full

Hourly Weather History & Observations

Time (EST) Temp. Windchill Dew Point Humidity Pressure Visibility Wind Dir Wind Speed Gust Speed Precip Events Conditions
12:15 AM 39.0 °F 36.8 °F 28.2 °F 65% 30.22 in 10.0 mi North 3.5 mph - N/A   Scattered Clouds
12:55 AM 39.2 °F - 28.4 °F 65% 30.22 in 10.0 mi Calm Calm - N/A   Clear
1:15 AM 40.1 °F 38.0 °F 29.1 °F 65% 30.22 in 10.0 mi East 3.5 mph - N/A   Clear
1:35 AM 38.5 °F - 28.4 °F 67% 30.26 in 10.0 mi Calm Calm - N/A   Mostly Cloudy
1:55 AM 38.5 °F 36.1 °F 28.9 °F 69% 30.26 in 10.0 mi West 3.5 mph - N/A   Overcast
2:15 AM 37.6 °F - 28.9 °F 71% 30.26 in 10.0 mi Calm Calm - N/A   Overcast
2:35 AM 37.0 °F - 28.9 °F 73% 30.26 in 10.0 mi Calm Calm - N/A   Mostly Cloudy
2:55 AM 37.4 °F - 28.8 °F 71% 30.26 in 10.0 mi Calm Calm - N/A   Mostly Cloudy
3:15 AM 36.7 °F - 28.6 °F 72% 30.26 in 10.0 mi Calm Calm - N/A   Scattered Clouds
3:35 AM 35.6 °F - 28.2 °F 75% 30.25 in 10.0 mi Calm Calm - N/A   Scattered Clouds
3:55 AM 35.1 °F - 28.4 °F 77% 30.25 in 10.0 mi Calm Calm - N/A   Clear
4:15 AM 36.0 °F - 28.6 °F 75% 30.26 in 10.0 mi Calm Calm - N/A   Clear
4:35 AM 35.8 °F - 28.4 °F 75% 30.26 in 10.0 mi Calm Calm - N/A   Clear
4:55 AM 35.1 °F - 28.4 °F 77% 30.25 in 10.0 mi Calm Calm - N/A   Clear
5:15 AM 34.3 °F - 28.4 °F 79% 30.25 in 10.0 mi Calm Calm - N/A   Clear
5:35 AM 33.8 °F 30.8 °F 28.4 °F 81% 30.25 in 10.0 mi North 3.5 mph - N/A   Clear
5:55 AM 36.0 °F 30.3 °F 28.9 °F 76% 30.24 in 10.0 mi NE 6.9 mph - N/A   Clear
6:15 AM 36.5 °F 31.0 °F 29.1 °F 75% 30.24 in 10.0 mi NNE 6.9 mph - N/A   Clear
6:35 AM 36.1 °F 32.3 °F 29.3 °F 76% 30.25 in 10.0 mi NE 4.6 mph - N/A   Clear
6:55 AM 36.1 °F 31.4 °F 29.8 °F 78% 30.24 in 10.0 mi NE 5.8 mph - N/A   Clear
7:15 AM 36.9 °F 32.2 °F 30.2 °F 77% 30.25 in 10.0 mi NNE 5.8 mph - N/A   Clear
7:35 AM 37.4 °F 33.8 °F 30.7 °F 77% 30.27 in 10.0 mi NE 4.6 mph - N/A   Clear
7:55 AM 38.3 °F 35.9 °F 31.5 °F 76% 30.28 in 10.0 mi ESE 3.5 mph - N/A   Clear
8:15 AM 38.5 °F 36.1 °F 31.3 °F 75% 30.29 in 10.0 mi ENE 3.5 mph - N/A   Clear
8:35 AM 38.5 °F - 31.8 °F 77% 30.29 in 10.0 mi Calm Calm - N/A   Clear
8:55 AM 40.3 °F 38.2 °F 32.7 °F 74% 30.29 in 10.0 mi ENE 3.5 mph - N/A   Clear
9:15 AM 41.0 °F 38.0 °F 33.3 °F 74% 30.29 in 10.0 mi East 4.6 mph - N/A   Clear
9:35 AM 41.5 °F 37.1 °F 33.6 °F 73% 30.28 in 10.0 mi ENE 6.9 mph - N/A   Clear
9:55 AM 42.3 °F 37.9 °F 34.0 °F 72% 30.27 in 10.0 mi East 6.9 mph - N/A   Clear
10:15 AM 43.7 °F 38.6 °F 33.3 °F 67% 30.28 in 10.0 mi SE 9.2 mph - N/A   Clear
10:35 AM 44.4 °F 39.5 °F 31.5 °F 60% 30.28 in 10.0 mi ESE 9.2 mph - N/A   Clear
10:55 AM 44.4 °F 38.6 °F 31.8 °F 61% 30.28 in 10.0 mi ESE 11.5 mph 17.3 mph N/A   Clear
11:15 AM 45.1 °F 39.9 °F 32.2 °F 60% 30.28 in 10.0 mi SE 10.4 mph - N/A   Scattered Clouds
11:35 AM 45.0 °F 38.2 °F 32.0 °F 60% 30.28 in 10.0 mi East 15.0 mph - N/A   Scattered Clouds
11:55 AM 44.8 °F 39.0 °F 32.7 °F 63% 30.27 in 10.0 mi SE 11.5 mph 19.6 mph N/A   Scattered Clouds
12:15 PM 44.8 °F 39.0 °F 32.9 °F 63% 30.26 in 10.0 mi SE 11.5 mph 18.4 mph N/A   Scattered Clouds
12:35 PM 44.8 °F 38.7 °F 32.0 °F 61% 30.26 in 10.0 mi ESE 12.7 mph 17.3 mph N/A   Clear
12:55 PM 44.8 °F 38.7 °F 32.0 °F 61% 30.26 in 10.0 mi ESE 12.7 mph 18.4 mph N/A   Scattered Clouds
1:15 PM 45.0 °F 39.7 °F 32.0 °F 60% 30.25 in 10.0 mi ESE 10.4 mph 17.3 mph N/A   Scattered Clouds
1:35 PM 45.0 °F 39.3 °F 32.0 °F 60% 30.23 in 10.0 mi ESE 11.5 mph - N/A   Mostly Cloudy
1:55 PM 44.8 °F 39.0 °F 32.4 °F 62% 30.21 in 10.0 mi ESE 11.5 mph 18.4 mph N/A   Overcast
2:15 PM 45.0 °F 38.2 °F 32.0 °F 60% 30.23 in 10.0 mi ESE 15.0 mph 20.7 mph N/A   Overcast
2:35 PM 44.1 °F 38.6 °F 32.4 °F 63% 30.23 in 10.0 mi SE 10.4 mph 16.1 mph N/A   Overcast
2:55 PM 43.9 °F 35.9 °F 32.4 °F 64% 30.21 in 10.0 mi ESE 18.4 mph 24.2 mph N/A   Overcast
3:15 PM 43.2 °F 36.6 °F 32.0 °F 65% 30.20 in 10.0 mi ESE 12.7 mph 21.9 mph N/A   Overcast
3:35 PM 43.0 °F 35.7 °F 32.0 °F 65% 30.19 in 10.0 mi ESE 15.0 mph 21.9 mph N/A   Overcast
3:55 PM 42.8 °F 35.4 °F 31.8 °F 65% 30.19 in 10.0 mi ESE 15.0 mph 18.4 mph N/A   Overcast
4:15 PM 42.8 °F 35.8 °F 30.9 °F 63% 30.19 in 10.0 mi ESE 13.8 mph 19.6 mph N/A   Overcast
4:35 PM 42.4 °F 34.7 °F 31.8 °F 66% 30.16 in 10.0 mi East 16.1 mph 20.7 mph N/A   Overcast
4:55 PM 42.3 °F 35.1 °F 32.0 °F 67% 30.16 in 10.0 mi ESE 13.8 mph 20.7 mph N/A   Overcast
5:15 PM 41.9 °F 34.6 °F 32.0 °F 68% 30.15 in 10.0 mi ESE 13.8 mph 23.0 mph N/A   Overcast
5:35 PM 41.9 °F 34.0 °F 32.4 °F 69% 30.14 in 10.0 mi East 16.1 mph 20.7 mph N/A   Overcast
6:15 PM 41.5 °F 33.8 °F 31.1 °F 66% 30.14 in 10.0 mi ESE 15.0 mph 24.2 mph N/A   Overcast
6:35 PM 41.5 °F 34.2 °F 30.6 °F 65% 30.13 in 10.0 mi East 13.8 mph 26.5 mph N/A   Overcast
7:15 PM 41.4 °F 33.0 °F 29.3 °F 62% 30.12 in 10.0 mi East 17.3 mph 25.3 mph N/A   Overcast
7:35 PM 41.0 °F 31.4 °F 30.7 °F 67% 30.10 in 10.0 mi East 21.9 mph 26.5 mph N/A   Light Drizzle
8:15 PM 40.3 °F 31.0 °F 33.1 °F 75% 30.07 in 10.0 mi East 19.6 mph 25.3 mph N/A   Overcast
8:35 PM 40.5 °F 31.5 °F 33.1 °F 75% 30.05 in 10.0 mi East 18.4 mph 28.8 mph N/A   Overcast
8:55 PM 40.3 °F 30.7 °F 32.4 °F 73% 30.03 in 10.0 mi East 20.7 mph 26.5 mph N/A   Overcast
9:15 PM 40.3 °F 30.7 °F 32.2 °F 73% 30.01 in 10.0 mi East 20.7 mph 25.3 mph N/A   Overcast
9:35 PM 40.1 °F 30.2 °F 32.2 °F 73% 30.00 in 10.0 mi East 21.9 mph 28.8 mph N/A   Light Drizzle
9:55 PM 39.7 °F 30.9 °F 33.4 °F 78% 30.00 in 10.0 mi ENE 17.3 mph 25.3 mph N/A Rain Light Rain
10:15 PM 39.6 °F 31.0 °F 34.3 °F 82% 30.00 in 5.0 mi East 16.1 mph 25.3 mph N/A Rain Heavy Rain
10:35 PM 39.2 °F 29.8 °F 35.1 °F 85% 29.96 in 4.0 mi ENE 18.4 mph - 0.05 in Rain Heavy Rain
10:55 PM 39.2 °F 30.2 °F 35.8 °F 88% 29.95 in 4.0 mi ENE 17.3 mph 21.9 mph 0.07 in Rain Light Rain
11:15 PM 39.2 °F 29.8 °F 36.0 °F 88% 29.91 in 7.0 mi ENE 18.4 mph - N/A Rain Light Rain
11:35 PM 39.2 °F 29.6 °F 36.1 °F 89% 29.89 in 5.0 mi ENE 19.6 mph 24.2 mph 0.01 in Rain Light Rain
11:55 PM 39.2 °F 29.6 °F 36.5 °F 90% 29.87 in 4.0 mi East 19.6 mph 25.3 mph 0.04 in Rain Heavy Rain